FENGYUN 1C DEB, 31888

Orbit data source: Space-Track

FENGYUN 1C DEB, 31888 is space debris in SSO originally from a launch on Mon, 10 May 1999 UTC launched from the Taiyaun Space Center, China (TSC). Fengyun 1C debris stems from the Chinese weather satellite Fengyun-1C, which was intentionally destroyed by a Chinese anti-satellite missile in 2007. This event dramatically increased the amount of space debris, with thousands of trackable fragments posing hazards to satellites and human spaceflight. The Fengyun 1C debris cloud has become a focal point in discussions about space sustainability and the need for international regulations to prevent the creation of new debris.

Loading next visibility...
Identifier
31888, 1999-025CKP
Orbit
SSO
Country
Flag of CNCN / PRC
Related business
Manufacturer
Unknown
Mission
Spacecraft
Bus & Motor
Unknown
Mass
Unknown
Launch date (UTC)
1999-05-10 (27 years ago)
Launch vehicle
Unknown
Launch site
Taiyaun Space Center, China (TSC)
Object type
Payload
Rocket body
Debris
Shape & HBR
Unknown shape, 0.1 m
Radar Cross Section
Small (<0.1 m²)

Expand to show TLE details & history
Last TLE update: 1 day ago

TLE from 1 day ago
0 FENGYUN 1C DEB
1 31888U 99025CKP 26094.58486484  .00008265  00000-0  28892-2 0  9993
2 31888  99.1587  32.6732 0017069 249.9666 109.9680 14.35380410972557
Epoch: 2026-04-04T14:02Z
TLE epoch observation values (Epoch: 2026-04-04T14:02:12.322Z)
Latitude
-0.00001°
Longitude
-10.78067°
Altitude
780.911 km
Speed
7.461 km/s
True Right ascension
02h 10m 41s
True Declination
0° 00' 00"
Sunlit
Object was in daylight at epoch
Visualization orbit readout
Latitude
Unknown
Longitude
Unknown
Altitude
Unknown
Speed
Unknown
Apparent Right ascension
Unknown
Apparent Declination
Unknown
Sunlit
N/A
Visualization observer readout
Local Sidereal Time
19:30:44
Azimuth
Unknown
Elevation
Unknown
Doppler factor
Unknown
Orbital elements
Apogee altitude
783.166 km
Perigee altitude
758.76 km
Semi-major axis
7,149.1 km
Eccentricity
0.00171
Inclination
99.1587°
RAAN
32.6732°
Arg. of periapsis
249.9666°
True anomaly
110.1517°
Mean anomaly
109.968°
Eccentric anomaly
110.05987°
Mean motion
3.59059 °/min
Orbital period
100.26 mins
BSTAR
0.0028892
Loading maneuver chart data...
Computing Atmospheric mass density...

Documentation

Showing up to 5 results
|